Location: Brno
(49.2000°N, 16.6330°E)
Time: 03:59:33
(UTC+01:00)

ISS - Pass Details

Date: 06 December 2021
Orbit: 413 x 422 km, 51.6° (Epoch: 22 January)

Event Time Altitude Azimuth Distance (km) Brightness Sun altitude
Rises 16:16:28 0° 288° (WNW) 2,387 0.7 -3.7°
Reaches altitude 10° 16:18:35 10° 289° (WNW) 1,518 -0.3 -4.0°
Maximum altitude 16:21:59 85° 16° (NNE) 431 -3.7 -4.4°
Drops below altitude 10° 16:25:23 10° 108° (ESE) 1,508 -1.3 -4.9°
Enters shadow 16:28:09 -2° 109° (ESE) 2,643 -0.1 -5.3°
